RYR74RW EPKK-LIBP

Flight info

Callsign RYR74RW
Flight time 1h 15m
Altitude 36000
Route BABKO DCT XOMBA DCT KOPRY DCT VAPUP DCT ETRIN
Aircraft B738/M-SDE2E3FGHIRWXY/LB1

Departure

Time 2026-04-21 06:54
Airport Kraków John Paul II International Airport (EPKK)

Arrival

Time 2026-04-21 08:10
Airport Abruzzo Airport (LIBP)
Time Latitude Longitude Altitude Speed Heading
2026-04-21 06:34 50.07338 19.80207 797 ft 0 kts 168°
2026-04-21 06:46 50.07340 19.80207 797 ft 1 kts 168°
2026-04-21 06:46 50.07354 19.80202 797 ft 2 kts 168°
2026-04-21 06:47 50.07369 19.80197 797 ft 2 kts 168°
2026-04-21 06:47 50.07384 19.80192 797 ft 2 kts 168°
2026-04-21 06:47 50.07399 19.80187 797 ft 2 kts 167°
2026-04-21 06:47 50.07414 19.80189 797 ft 2 kts 209°
2026-04-21 06:48 50.07425 19.80204 797 ft 2 kts 242°
2026-04-21 06:48 50.07428 19.80216 797 ft 0 kts 262°
2026-04-21 06:48 50.07429 19.80224 797 ft 0 kts 259°
2026-04-21 06:50 50.07428 19.80222 797 ft 1 kts 259°
2026-04-21 06:50 50.07415 19.80117 797 ft 18 kts 259°
2026-04-21 06:50 50.07448 19.79956 797 ft 16 kts 340°
2026-04-21 06:50 50.07554 19.79917 797 ft 14 kts 331°
2026-04-21 06:51 50.07616 19.79781 797 ft 17 kts 302°
2026-04-21 06:51 50.07674 19.79589 797 ft 21 kts 265°
2026-04-21 06:51 50.07639 19.79345 797 ft 25 kts 257°
2026-04-21 06:51 50.07599 19.79052 797 ft 29 kts 258°
2026-04-21 06:52 50.07550 19.78698 797 ft 36 kts 259°
2026-04-21 06:52 50.07491 19.78281 797 ft 42 kts 257°
2026-04-21 06:52 50.07426 19.77812 797 ft 42 kts 258°
2026-04-21 06:52 50.07364 19.77368 797 ft 41 kts 259°
2026-04-21 06:53 50.07313 19.76998 797 ft 31 kts 261°
2026-04-21 06:53 50.07458 19.76858 797 ft 26 kts 349°
2026-04-21 06:53 50.07568 19.77000 797 ft 24 kts 78°
2026-04-21 06:53 50.07634 19.77451 797 ft 72 kts 79°
2026-04-21 06:54 50.07779 19.78533 797 ft 129 kts 78°
2026-04-21 06:54 50.07995 19.80123 927 ft 161 kts 77°
2026-04-21 06:54 50.08213 19.81805 1564 ft 160 kts 76°
2026-04-21 06:54 50.08468 19.83466 2180 ft 161 kts 76°
2026-04-21 06:55 50.08731 19.85215 2660 ft 171 kts 76°
2026-04-21 06:55 50.08995 19.87071 3129 ft 184 kts 76°
2026-04-21 06:55 50.09264 19.89025 3678 ft 194 kts 76°
2026-04-21 06:55 50.09561 19.91150 4174 ft 208 kts 76°
2026-04-21 06:56 50.09778 19.93478 4626 ft 228 kts 91°
2026-04-21 06:56 50.09224 19.95838 5164 ft 249 kts 126°
2026-04-21 06:56 50.07735 19.97404 5786 ft 270 kts 161°
2026-04-21 06:56 50.05843 19.97421 6502 ft 284 kts 194°
2026-04-21 06:57 50.04176 19.95852 7247 ft 291 kts 226°
2026-04-21 06:57 50.03000 19.93253 8016 ft 294 kts 240°
2026-04-21 06:57 50.01988 19.90502 8771 ft 298 kts 240°
2026-04-21 06:57 50.00817 19.87843 9531 ft 300 kts 225°
2026-04-21 06:58 49.99195 19.85844 10332 ft 299 kts 212°
2026-04-21 06:58 49.97409 19.84154 10802 ft 312 kts 210°
2026-04-21 06:58 49.95487 19.82376 11237 ft 326 kts 211°
2026-04-21 06:58 49.93530 19.80475 11628 ft 341 kts 212°
2026-04-21 06:59 49.91496 19.78414 11993 ft 356 kts 213°
2026-04-21 06:59 49.89397 19.76238 12371 ft 371 kts 214°
2026-04-21 06:59 49.87224 19.73968 12683 ft 387 kts 214°
2026-04-21 06:59 49.84927 19.71565 12976 ft 402 kts 214°
2026-04-21 07:00 49.82594 19.69128 13385 ft 414 kts 214°
2026-04-21 07:00 49.80197 19.66630 13988 ft 420 kts 214°
2026-04-21 07:00 49.77760 19.64098 14695 ft 424 kts 215°
2026-04-21 07:00 49.75308 19.61556 15406 ft 427 kts 215°
2026-04-21 07:01 49.72842 19.59005 16099 ft 430 kts 214°
2026-04-21 07:01 49.70355 19.56436 16739 ft 434 kts 215°
2026-04-21 07:01 49.65324 19.51242 18038 ft 442 kts 215°
2026-04-21 07:02 49.62757 19.48588 18693 ft 445 kts 215°
2026-04-21 07:02 49.60149 19.45997 19319 ft 448 kts 212°
2026-04-21 07:02 49.57437 19.43625 19911 ft 453 kts 210°
2026-04-21 07:02 49.54606 19.41355 20535 ft 456 kts 208°
2026-04-21 07:03 49.51787 19.39182 21104 ft 460 kts 208°
2026-04-21 07:03 49.48889 19.36981 21710 ft 463 kts 208°
2026-04-21 07:03 49.45996 19.34788 22273 ft 467 kts 207°
2026-04-21 07:03 49.43059 19.32552 22814 ft 471 kts 207°
2026-04-21 07:04 49.40148 19.30324 23353 ft 474 kts 207°
2026-04-21 07:04 49.37171 19.28032 23892 ft 477 kts 208°
2026-04-21 07:04 49.34174 19.25715 24382 ft 481 kts 208°
2026-04-21 07:04 49.31192 19.23403 24859 ft 485 kts 208°
2026-04-21 07:05 49.28201 19.21081 25317 ft 488 kts 208°
2026-04-21 07:05 49.25174 19.18729 25812 ft 489 kts 208°
2026-04-21 07:05 49.22154 19.16384 26531 ft 486 kts 208°
2026-04-21 07:05 49.19130 19.14039 27104 ft 485 kts 208°
2026-04-21 07:06 49.16135 19.11717 27630 ft 485 kts 208°
2026-04-21 07:06 49.13120 19.09383 28168 ft 484 kts 208°
2026-04-21 07:06 49.10133 19.07073 28683 ft 483 kts 208°
2026-04-21 07:06 49.07116 19.04742 29185 ft 482 kts 208°
2026-04-21 07:07 49.04111 19.02424 29649 ft 481 kts 208°
2026-04-21 07:07 49.01127 19.00125 30049 ft 481 kts 208°
2026-04-21 07:07 48.98102 18.97798 30400 ft 481 kts 208°
2026-04-21 07:07 48.95104 18.95495 30734 ft 482 kts 208°
2026-04-21 07:08 48.92146 18.93226 31074 ft 481 kts 209°
2026-04-21 07:08 48.89143 18.90926 31337 ft 481 kts 209°
2026-04-21 07:08 48.86172 18.88655 31610 ft 480 kts 209°
2026-04-21 07:08 48.83178 18.86369 31929 ft 478 kts 209°
2026-04-21 07:09 48.80209 18.84104 32174 ft 478 kts 210°
2026-04-21 07:09 48.77224 18.81829 32447 ft 477 kts 209°
2026-04-21 07:09 48.74254 18.79570 32677 ft 477 kts 210°
2026-04-21 07:09 48.71303 18.77328 32904 ft 476 kts 210°
2026-04-21 07:10 48.68321 18.75065 33130 ft 476 kts 210°
2026-04-21 07:10 48.65379 18.72835 33392 ft 475 kts 210°
2026-04-21 07:10 48.62400 18.70581 33631 ft 475 kts 210°
2026-04-21 07:10 48.59438 18.68341 33855 ft 475 kts 210°
2026-04-21 07:11 48.56473 18.66103 34114 ft 475 kts 210°
2026-04-21 07:11 48.53518 18.63875 34356 ft 475 kts 210°
2026-04-21 07:11 48.50561 18.61648 34613 ft 474 kts 210°
2026-04-21 07:11 48.47635 18.59447 34855 ft 473 kts 210°
2026-04-21 07:12 48.44670 18.57222 35111 ft 472 kts 210°
2026-04-21 07:12 48.41753 18.55036 35329 ft 471 kts 210°
2026-04-21 07:12 48.38803 18.52827 35542 ft 471 kts 210°
2026-04-21 07:12 48.35905 18.50660 35731 ft 471 kts 210°
2026-04-21 07:13 48.32966 18.48463 35905 ft 471 kts 210°
2026-04-21 07:13 48.30031 18.46273 36034 ft 472 kts 210°
2026-04-21 07:13 48.24078 18.41838 36049 ft 477 kts 210°
2026-04-21 07:14 48.18149 18.37435 36046 ft 477 kts 210°
2026-04-21 07:14 48.12155 18.32998 36046 ft 477 kts 209°
2026-04-21 07:15 48.06215 18.28610 36044 ft 477 kts 209°
2026-04-21 07:15 48.00263 18.24226 36049 ft 477 kts 210°
2026-04-21 07:16 47.94317 18.19857 36050 ft 476 kts 210°
2026-04-21 07:16 47.88331 18.15470 36049 ft 476 kts 210°
2026-04-21 07:17 47.82415 18.11146 36045 ft 475 kts 210°
2026-04-21 07:17 47.76434 18.06784 36050 ft 476 kts 210°
2026-04-21 07:18 47.70522 18.02434 36052 ft 476 kts 211°
2026-04-21 07:18 47.64574 17.97992 36056 ft 475 kts 211°
2026-04-21 07:19 47.58659 17.93570 36057 ft 476 kts 211°
2026-04-21 07:19 47.52703 17.89136 36063 ft 475 kts 211°
2026-04-21 07:20 47.46794 17.84755 36063 ft 475 kts 211°
2026-04-21 07:20 47.40865 17.80374 36058 ft 474 kts 211°
2026-04-21 07:21 47.34955 17.76021 36062 ft 475 kts 211°
2026-04-21 07:21 47.29070 17.71697 36063 ft 473 kts 211°
2026-04-21 07:22 47.23141 17.67352 36065 ft 473 kts 211°
2026-04-21 07:22 47.17216 17.63022 36061 ft 473 kts 212°
2026-04-21 07:23 47.11313 17.58717 36062 ft 472 kts 212°
2026-04-21 07:23 47.05430 17.54439 36069 ft 471 kts 212°
2026-04-21 07:24 46.99531 17.50160 36068 ft 472 kts 212°
2026-04-21 07:24 46.93655 17.45906 36074 ft 472 kts 212°
2026-04-21 07:25 46.87776 17.41662 36076 ft 470 kts 212°
2026-04-21 07:25 46.81895 17.37428 36087 ft 470 kts 212°
2026-04-21 07:26 46.76002 17.33196 36075 ft 471 kts 212°
2026-04-21 07:26 46.70100 17.28965 36077 ft 470 kts 212°
2026-04-21 07:27 46.64243 17.24781 36082 ft 468 kts 212°
2026-04-21 07:27 46.58376 17.20599 36082 ft 467 kts 212°
2026-04-21 07:28 46.52551 17.16455 36080 ft 468 kts 212°
2026-04-21 07:28 46.46683 17.12290 36069 ft 466 kts 212°
2026-04-21 07:29 46.40863 17.08169 36074 ft 466 kts 212°
2026-04-21 07:29 46.34998 17.04026 36068 ft 465 kts 212°
2026-04-21 07:30 46.29194 16.99938 36068 ft 466 kts 213°
2026-04-21 07:30 46.23373 16.95853 36070 ft 465 kts 212°
2026-04-21 07:31 46.17393 16.92116 36079 ft 469 kts 209°
2026-04-21 07:31 46.11341 16.88676 36068 ft 469 kts 208°
2026-04-21 07:32 46.05276 16.85254 36066 ft 469 kts 208°
2026-04-21 07:32 45.99186 16.81780 36059 ft 468 kts 209°
2026-04-21 07:33 45.93110 16.78291 36064 ft 468 kts 209°
2026-04-21 07:33 45.87083 16.74816 36068 ft 467 kts 209°
2026-04-21 07:34 45.81036 16.71327 36056 ft 468 kts 209°
2026-04-21 07:34 45.75025 16.67871 36054 ft 465 kts 210°
2026-04-21 07:35 45.68989 16.64401 36073 ft 470 kts 209°
2026-04-21 07:35 45.62944 16.60939 36056 ft 467 kts 209°
2026-04-21 07:36 45.59905 16.59203 35883 ft 465 kts 209°
2026-04-21 07:36 45.56932 16.57506 36046 ft 465 kts 209°
2026-04-21 07:36 45.50851 16.54033 36053 ft 470 kts 209°
2026-04-21 07:37 45.44785 16.50581 36037 ft 469 kts 209°
2026-04-21 07:37 45.38684 16.47121 36038 ft 471 kts 209°
2026-04-21 07:38 45.32603 16.43681 36041 ft 468 kts 209°
2026-04-21 07:38 45.26518 16.40245 36041 ft 469 kts 209°
2026-04-21 07:39 45.20465 16.36833 36046 ft 468 kts 209°
2026-04-21 07:39 45.14394 16.33420 36030 ft 468 kts 208°
2026-04-21 07:40 45.08285 16.29992 36018 ft 470 kts 208°
2026-04-21 07:40 45.02235 16.26609 36020 ft 469 kts 208°
2026-04-21 07:41 44.96138 16.23205 36023 ft 469 kts 208°
2026-04-21 07:41 44.90082 16.19832 36004 ft 468 kts 208°
2026-04-21 07:42 44.84045 16.16479 36004 ft 468 kts 208°
2026-04-21 07:42 44.77967 16.13105 35994 ft 469 kts 208°
2026-04-21 07:43 44.71864 16.09729 35984 ft 467 kts 208°
2026-04-21 07:43 44.65827 16.06396 35979 ft 469 kts 208°
2026-04-21 07:44 44.59716 16.03029 35975 ft 468 kts 208°
2026-04-21 07:44 44.53620 15.99681 35967 ft 467 kts 208°
2026-04-21 07:45 44.47587 15.96375 35973 ft 465 kts 208°
2026-04-21 07:45 44.41531 15.93061 35970 ft 467 kts 208°
2026-04-21 07:46 44.35467 15.89749 35957 ft 467 kts 208°
2026-04-21 07:46 44.29380 15.86434 35951 ft 467 kts 208°
2026-04-21 07:47 44.23328 15.83145 35953 ft 467 kts 208°
2026-04-21 07:47 44.17260 15.79859 35953 ft 465 kts 208°
2026-04-21 07:48 44.11206 15.76582 35950 ft 466 kts 208°
2026-04-21 07:48 44.05174 15.73327 35952 ft 465 kts 208°
2026-04-21 07:49 43.99114 15.70062 35955 ft 465 kts 208°
2026-04-21 07:49 43.93039 15.66797 35960 ft 465 kts 208°
2026-04-21 07:50 43.87049 15.63587 35961 ft 464 kts 208°
2026-04-21 07:50 43.81005 15.60353 35957 ft 463 kts 208°
2026-04-21 07:51 43.74979 15.57136 35953 ft 459 kts 208°
2026-04-21 07:51 43.69092 15.54011 35593 ft 449 kts 208°
2026-04-21 07:52 43.66174 15.52464 35104 ft 449 kts 208°
2026-04-21 07:52 43.63250 15.50907 34422 ft 451 kts 209°
2026-04-21 07:52 43.60351 15.49361 33604 ft 454 kts 208°
2026-04-21 07:52 43.57362 15.47767 32765 ft 457 kts 208°
2026-04-21 07:53 43.54418 15.46202 31926 ft 459 kts 208°
2026-04-21 07:53 43.51447 15.44625 31060 ft 462 kts 208°
2026-04-21 07:53 43.48459 15.43042 30151 ft 464 kts 207°
2026-04-21 07:53 43.45432 15.41442 29187 ft 467 kts 207°
2026-04-21 07:54 43.42412 15.39847 28209 ft 469 kts 207°
2026-04-21 07:54 43.39377 15.38246 27197 ft 472 kts 207°
2026-04-21 07:54 43.36312 15.36632 26137 ft 475 kts 207°
2026-04-21 07:54 43.33218 15.35003 25021 ft 478 kts 206°
2026-04-21 07:55 43.30117 15.33375 24187 ft 474 kts 205°
2026-04-21 07:55 43.27079 15.31786 23495 ft 468 kts 205°
2026-04-21 07:55 43.24073 15.30217 22768 ft 464 kts 205°
2026-04-21 07:55 43.21060 15.28645 22002 ft 460 kts 205°
2026-04-21 07:56 43.18084 15.27092 21237 ft 456 kts 205°
2026-04-21 07:56 43.15162 15.25570 20481 ft 452 kts 205°
2026-04-21 07:56 43.12217 15.24035 19712 ft 449 kts 205°
2026-04-21 07:56 43.09351 15.22499 18953 ft 444 kts 207°
2026-04-21 07:57 43.06587 15.20709 18203 ft 438 kts 212°
2026-04-21 07:57 43.04002 15.18619 17460 ft 432 kts 217°
2026-04-21 07:57 43.01543 15.16296 16687 ft 424 kts 220°
2026-04-21 07:57 42.99229 15.13893 15946 ft 415 kts 222°
2026-04-21 07:58 42.97020 15.11484 15250 ft 408 kts 223°
2026-04-21 07:58 42.94835 15.09056 14532 ft 405 kts 223°
2026-04-21 07:58 42.92673 15.06642 13810 ft 402 kts 224°
2026-04-21 07:58 42.90521 15.04242 13106 ft 399 kts 223°
2026-04-21 07:59 42.88382 15.01879 12392 ft 393 kts 223°
2026-04-21 07:59 42.86275 14.99572 11726 ft 387 kts 222°
2026-04-21 07:59 42.84193 14.97305 11240 ft 378 kts 222°
2026-04-21 07:59 42.82170 14.95111 10983 ft 372 kts 222°
2026-04-21 08:00 42.80136 14.92907 10842 ft 373 kts 221°
2026-04-21 08:00 42.78141 14.90751 10669 ft 372 kts 221°
2026-04-21 08:00 42.76091 14.88537 10477 ft 370 kts 221°
2026-04-21 08:00 42.74094 14.86385 10294 ft 369 kts 221°
2026-04-21 08:01 42.72084 14.84224 10108 ft 367 kts 221°
2026-04-21 08:01 42.70073 14.82062 9693 ft 369 kts 221°
2026-04-21 08:01 42.68064 14.79904 9191 ft 363 kts 221°
2026-04-21 08:02 42.64213 14.75772 8265 ft 344 kts 221°
2026-04-21 08:02 42.62403 14.73775 7857 ft 326 kts 224°
2026-04-21 08:02 42.60930 14.71593 7501 ft 309 kts 238°
2026-04-21 08:02 42.60150 14.68954 7131 ft 293 kts 261°
2026-04-21 08:03 42.59902 14.66289 6758 ft 281 kts 266°
2026-04-21 08:03 42.59746 14.63710 6411 ft 270 kts 266°
2026-04-21 08:03 42.59575 14.61239 6104 ft 261 kts 265°
2026-04-21 08:03 42.59370 14.58799 5777 ft 255 kts 264°
2026-04-21 08:04 42.59146 14.56441 5446 ft 255 kts 263°
2026-04-21 08:04 42.58912 14.54071 5131 ft 254 kts 263°
2026-04-21 08:04 42.58675 14.51671 4796 ft 253 kts 263°
2026-04-21 08:04 42.58445 14.49319 4473 ft 254 kts 263°
2026-04-21 08:05 42.58211 14.46928 4174 ft 253 kts 264°
2026-04-21 08:05 42.57981 14.44582 4022 ft 252 kts 264°
2026-04-21 08:05 42.57751 14.42211 3845 ft 254 kts 264°
2026-04-21 08:05 42.57522 14.39866 3613 ft 254 kts 264°
2026-04-21 08:06 42.57287 14.37459 3308 ft 254 kts 264°
2026-04-21 08:06 42.57050 14.35092 3028 ft 253 kts 263°
2026-04-21 08:06 42.56613 14.32788 2776 ft 254 kts 248°
2026-04-21 08:06 42.55607 14.30868 2557 ft 255 kts 224°
2026-04-21 08:07 42.54126 14.29542 2311 ft 255 kts 209°
2026-04-21 08:07 42.52682 14.28317 2082 ft 235 kts 217°
2026-04-21 08:07 42.51499 14.26957 1901 ft 211 kts 220°
2026-04-21 08:07 42.50391 14.25753 1644 ft 195 kts 216°
2026-04-21 08:08 42.49334 14.24719 1440 ft 177 kts 216°
2026-04-21 08:08 42.48390 14.23732 1144 ft 167 kts 218°
2026-04-21 08:08 42.47511 14.22810 950 ft 153 kts 218°
2026-04-21 08:08 42.46652 14.21941 764 ft 156 kts 219°
2026-04-21 08:09 42.45812 14.21057 554 ft 153 kts 218°
2026-04-21 08:09 42.44956 14.20189 336 ft 152 kts 216°
2026-04-21 08:09 42.44110 14.19335 123 ft 149 kts 218°
2026-04-21 08:09 42.43339 14.18536 40 ft 111 kts 217°
2026-04-21 08:10 42.42871 14.18041 44 ft 69 kts 216°
2026-04-21 08:10 42.42605 14.17916 49 ft 29 kts 165°
2026-04-21 08:10 42.42631 14.18083 46 ft 25 kts 36°
2026-04-21 08:10 42.42770 14.18230 44 ft 24 kts 38°
2026-04-21 08:11 42.42905 14.18367 44 ft 23 kts 37°
2026-04-21 08:11 42.43018 14.18516 44 ft 21 kts 81°
2026-04-21 08:11 42.43057 14.18691 44 ft 19 kts 45°
2026-04-21 08:11 42.43058 14.18752 45 ft 3 kts 122°
2026-04-21 08:12 42.43055 14.18759 46 ft 0 kts 123°